Waarnemingen

Advertentie
Mijn weer
Ajaccio, Frankrijk (7761): temperatuur & dauwpunt: 12.10.2017 05:00:00 - 18.10.2017 05:00:00 (CEST)Ajaccio, Frankrijk (7761): temperatuur 5cm: 12.10.2017 05:00:00 - 18.10.2017 05:00:00 (CEST)Ajaccio, Frankrijk (7761): temperatuur -20cm & temperatuur -100cm: 12.10.2017 05:00:00 - 18.10.2017 05:00:00 (CEST)Ajaccio, Frankrijk (7761): windsnelheid & windstoten: 12.10.2017 05:00:00 - 18.10.2017 05:00:00 (CEST)Ajaccio, Frankrijk (7761): windrichting: 12.10.2017 05:00:00 - 18.10.2017 05:00:00 (CEST)Ajaccio, Frankrijk (7761): luchtdruk: 12.10.2017 05:00:00 - 18.10.2017 05:00:00 (CEST)Ajaccio, Frankrijk (7761): zicht: 12.10.2017 05:00:00 - 18.10.2017 05:00:00 (CEST)Ajaccio, Frankrijk (7761): Zonneschijnduur: 12.10.2017 05:00:00 - 18.10.2017 05:00:00 (CEST)Ajaccio, Frankrijk (7761): neerslag: 12.10.2017 05:00:00 - 18.10.2017 05:00:00 (CEST)
Datum & Tijd tt [°C] td [°C] tt 5cm [°C] tt -20cm [°C] tt -100cm [°C] ff [km/u] ff [kn] fx [km/u] fx [kn] dd ppp [hPa] vv [km] sd [min] rr [mm]
18.10.2017 05:00:00 11,3 7,8 10,2 21,2 22,6 13 7 18 10 NO 1021,0 10 0 0,0
18.10.2017 04:00:00 11,1 8,8 9,8 21,3 22,6 13 7 17 9 NO 1021,2 10 0 0,0
18.10.2017 03:00:00 11,7 9,8 10,6 21,4 22,6 9 5 14 7 NO 1021,7 10 0 0,0
18.10.2017 02:00:00 12,6 10,1 11,1 21,5 22,6 9 5 15 8 NO 1021,9 10 0 0,0
18.10.2017 01:00:00 12,7 10,8 11,9 21,5 22,6 11 6 16 9 NO 1022,1 10 0 0,0
18.10.2017 00:00:00 13,0 11,6 12,1 21,6 22,6 11 6 16 8 NO 1022,6 9 0 0,2
17.10.2017 23:00:00 13,7 12,3 12,8 21,5 22,6 5 3 11 6 NO 1022,7 7 0 0,0
17.10.2017 22:00:00 15,1 13,5 13,9 21,5 22,6 5 3 9 5 NO 1022,5 6 0 0,0
17.10.2017 21:00:00 16,2 14,4 14,7 21,4 22,6 8 4 11 6 NO 1022,7 7 0 0,0
17.10.2017 20:00:00 17,5 14,8 16,0 21,2 22,6 5 3 8 4 NO 1022,9 8 0 0,0
17.10.2017 19:00:00 19,7 16,2 17,3 21,0 22,6 5 3 10 6 Z 1022,7 10 29 0,0
17.10.2017 18:00:00 21,8 16,1 21,2 20,8 22,6 9 5 14 8 Z 1022,6 10 60 0,0
17.10.2017 17:00:00 22,5 15,8 23,9 20,6 22,6 8 4 20 11 ZZW 1022,8 10 60 0,0
17.10.2017 16:00:00 22,9 16,9 23,9 20,4 22,6 15 8 26 14 ZZW 1023,3 20 60 0,0
17.10.2017 15:00:00 22,8 17,0 28,3 20,3 22,6 18 10 24 13 ZW 1023,8 33 60 0,0
17.10.2017 14:00:00 22,4 16,0 29,5 20,3 22,6 13 7 21 11 ZZW 1024,2 10 60 0,0
17.10.2017 13:00:00 21,9 16,4 30,2 20,3 22,6 13 7 19 10 WZW 1024,9 10 60 0,0
17.10.2017 12:00:00 21,0 15,5 30,4 20,4 22,6 8 4 15 8 ZW 1025,6 10 60 0,0
17.10.2017 11:00:00 20,4 12,9 22,8 20,5 22,6 11 6 18 10 ZZW 1026,1 10 60 0,0
17.10.2017 10:00:00 17,4 11,4 16,7 20,7 22,6 4 2 13 7 - 1025,9 10 60 0,0
17.10.2017 09:00:00 13,2 9,4 9,9 20,8 22,6 11 6 16 9 NO 1025,6 10 49 0,0
17.10.2017 08:00:00 10,8 8,6 9,6 21,0 22,6 11 6 19 10 NO 1025,7 20 0 0,0
17.10.2017 07:00:00 10,6 8,9 9,1 21,1 22,7 11 6 15 8 NO 1025,5 10 0 0,0
17.10.2017 06:00:00 11,2 9,1 10,2 21,2 22,6 11 6 16 8 NO 1025,6 10 0 0,0
17.10.2017 05:00:00 11,6 9,5 10,0 21,4 22,6 11 6 16 9 NO 1025,8 10 0 0,0
17.10.2017 04:00:00 11,0 9,4 10,1 21,5 22,7 11 6 14 8 NO 1025,9 10 0 0,0
17.10.2017 03:00:00 12,7 10,6 11,3 21,5 22,6 9 5 16 9 NO 1026,2 10 0 0,0
17.10.2017 02:00:00 12,1 10,7 11,3 21,6 22,6 11 6 16 9 NO 1026,5 10 0 0,0
17.10.2017 01:00:00 12,6 11,2 11,7 21,7 22,6 9 5 12 6 NO 1026,8 8 0 0,0
17.10.2017 00:00:00 13,8 12,2 12,8 21,7 22,7 9 5 13 7 NO 1027,0 9 0 0,0
16.10.2017 23:00:00 14,6 12,8 13,6 21,7 22,7 11 6 14 8 NO 1027,0 8 0 0,0
16.10.2017 22:00:00 14,8 13,0 13,8 21,7 22,6 9 5 13 7 NO 1027,1 9 0 0,0
16.10.2017 21:00:00 15,8 13,8 14,8 21,6 22,7 11 6 14 7 NO 1027,2 10 0 0,0
16.10.2017 20:00:00 17,3 14,6 15,7 21,5 22,7 5 3 8 4 NO 1027,2 8 0 0,0
16.10.2017 19:00:00 19,3 15,6 16,0 21,2 22,7 4 2 11 6 - 1027,0 10 31 0,0
16.10.2017 18:00:00 21,3 16,3 21,0 21,0 22,7 9 5 13 7 ZW 1026,9 10 60 0,0
16.10.2017 17:00:00 22,2 16,7 24,1 20,8 22,6 11 6 16 8 ZW 1027,0 10 60 0,0
16.10.2017 16:00:00 22,5 16,5 24,2 20,7 22,7 13 7 19 10 ZW 1027,2 10 60 0,0
16.10.2017 15:00:00 22,6 16,4 29,2 20,6 22,7 16 9 22 12 ZW 1027,6 10 60 0,0
16.10.2017 14:00:00 22,5 16,8 30,0 20,5 22,7 16 9 21 12 ZW 1027,7 10 60 0,0
16.10.2017 13:00:00 22,0 15,8 29,8 20,5 22,7 13 7 18 10 ZW 1028,1 10 60 0,0
16.10.2017 12:00:00 21,4 14,8 29,9 20,7 22,7 9 5 19 11 ZW 1028,4 10 60 0,0
16.10.2017 11:00:00 21,7 12,8 22,1 20,8 22,7 2 1 9 5 - 1028,6 10 60 0,0
16.10.2017 10:00:00 16,5 10,8 16,3 20,9 22,7 8 4 13 7 NO 1028,8 10 60 0,0
16.10.2017 09:00:00 12,8 9,4 10,2 21,1 22,7 11 6 16 8 NO 1028,7 10 56 0,0
16.10.2017 08:00:00 10,6 9,0 9,6 21,2 22,7 11 6 19 11 NO 1028,2 10 0 0,0
16.10.2017 07:00:00 10,6 9,2 9,6 21,4 22,7 11 6 16 8 NO 1027,9 10 0 0,0
16.10.2017 06:00:00 11,2 9,8 10,0 21,5 22,7 9 5 14 8 NO 1027,8 10 0 0,0
16.10.2017 05:00:00 10,9 9,7 10,0 21,6 22,7 8 4 12 6 NO 1027,7 10 0 0,0
16.10.2017 04:00:00 11,8 10,4 10,8 21,7 22,7 5 3 10 6 NO 1027,8 8 0 0,0
16.10.2017 03:00:00 12,4 10,8 11,1 21,8 22,7 9 5 13 7 NO 1028,0 10 0 0,2
16.10.2017 02:00:00 12,8 11,2 11,7 21,9 22,7 9 5 14 8 NO 1028,2 10 0 0,0
16.10.2017 01:00:00 13,1 11,8 12,2 22,0 22,7 11 6 14 7 NO 1028,4 10 0 0,0
16.10.2017 00:00:00 13,5 12,1 12,6 22,1 22,7 9 5 14 8 NO 1028,7 10 0 0,0
15.10.2017 23:00:00 14,5 12,7 13,1 22,1 22,7 8 4 11 6 NO 1028,6 9 0 0,0
15.10.2017 22:00:00 15,5 13,3 14,3 21,9 22,7 8 4 12 6 ONO 1028,5 10 0 0,0
15.10.2017 21:00:00 16,0 13,8 14,9 21,9 22,7 9 5 12 7 ONO 1028,4 10 0 0,0
15.10.2017 20:00:00 18,1 15,0 16,1 21,7 22,7 5 3 6 3 NO 1028,2 10 0 0,0
15.10.2017 19:00:00 20,0 15,8 17,8 21,5 22,7 5 3 11 6 Z 1027,9 10 29 0,0
15.10.2017 18:00:00 21,8 15,6 21,6 21,3 22,7 9 5 14 8 ZZW 1027,5 10 60 0,0
15.10.2017 17:00:00 22,8 15,4 24,1 21,1 22,7 11 6 18 10 ZZW 1027,7 10 60 0,0
15.10.2017 16:00:00 23,2 15,8 24,5 20,9 22,7 13 7 21 11 ZZW 1028,0 10 60 0,0
15.10.2017 15:00:00 23,1 15,2 29,7 20,8 22,8 15 8 24 13 ZZW 1028,3 10 60 0,0
15.10.2017 14:00:00 23,3 15,1 31,5 20,8 22,7 15 8 21 11 ZW 1028,8 10 60 0,0
15.10.2017 13:00:00 22,6 15,7 30,9 20,8 22,7 13 7 23 12 ZW 1029,4 10 60 0,0
15.10.2017 12:00:00 21,5 12,6 30,9 20,9 22,7 8 4 11 6 ZW 1029,7 10 60 0,0
15.10.2017 11:00:00 21,6 10,4 24,3 21,0 22,7 4 2 6 4 - 1029,9 10 60 0,0
15.10.2017 10:00:00 17,4 10,7 16,6 21,2 22,8 5 3 12 6 - 1029,9 10 60 0,0
15.10.2017 09:00:00 13,4 9,3 10,6 21,3 22,8 13 7 17 9 NO 1029,7 10 57 0,0
15.10.2017 08:00:00 11,1 8,8 10,2 21,5 22,7 11 6 18 10 NNO 1029,3 10 0 0,0
15.10.2017 07:00:00 10,9 9,0 9,9 21,6 22,8 11 6 15 8 NO 1028,9 10 0 0,0
15.10.2017 06:00:00 11,8 9,7 10,7 21,7 22,8 13 7 17 9 NO 1028,7 10 0 0,0
15.10.2017 05:00:00 11,9 10,0 11,0 21,9 22,8 11 6 14 8 NO 1028,5 10 0 0,0
15.10.2017 04:00:00 12,3 10,7 11,4 22,0 22,8 11 6 14 7 NO 1028,6 10 0 0,0
15.10.2017 03:00:00 12,6 11,2 11,3 22,1 22,8 9 5 16 9 NO 1029,0 10 0 0,0
15.10.2017 02:00:00 13,0 11,4 12,0 22,2 22,8 9 5 14 8 NO 1029,0 10 0 0,0
15.10.2017 01:00:00 13,6 11,6 12,6 22,2 22,8 11 6 14 8 NO 1029,0 10 0 0,0
15.10.2017 00:00:00 14,2 11,9 13,2 22,3 22,8 9 5 15 8 NO 1029,0 10 0 0,0
14.10.2017 23:00:00 15,2 12,5 13,9 22,3 22,8 9 5 14 7 NO 1028,9 10 0 0,0
14.10.2017 22:00:00 15,4 12,7 14,5 22,2 22,8 9 5 12 7 NO 1028,6 9 0 0,0
14.10.2017 21:00:00 16,4 13,1 15,3 22,1 22,8 9 5 12 7 NO 1028,3 10 0 0,0
14.10.2017 20:00:00 18,3 14,0 16,7 21,9 22,8 4 2 5 3 NO 1028,1 10 0 0,0
14.10.2017 19:00:00 20,3 14,2 18,2 21,7 22,8 4 2 13 7 - 1027,6 10 29 0,0
14.10.2017 18:00:00 22,6 14,7 22,3 21,5 22,8 5 3 12 7 ZW 1027,3 10 60 0,0
14.10.2017 17:00:00 23,6 14,3 25,0 21,3 22,8 11 6 16 9 ZZW 1027,2 10 60 0,0
14.10.2017 16:00:00 23,8 14,8 25,2 21,1 22,8 11 6 18 10 ZZW 1027,2 10 60 0,0
14.10.2017 15:00:00 23,8 14,5 30,1 21,0 22,8 13 7 19 10 ZZW 1027,4 10 60 0,0
14.10.2017 14:00:00 23,4 14,9 30,8 20,9 22,8 15 8 21 11 ZZW 1027,9 10 60 0,0
14.10.2017 13:00:00 22,4 15,3 31,2 21,0 22,8 13 7 18 10 ZW 1028,2 10 60 0,0
14.10.2017 12:00:00 21,5 14,9 30,8 21,1 22,8 9 5 13 7 ZW 1028,8 10 60 0,0
14.10.2017 11:00:00 20,9 13,8 23,7 21,2 22,8 4 2 8 5 - 1028,9 10 60 0,0
14.10.2017 10:00:00 17,6 13,3 17,5 21,3 22,8 5 3 12 6 NO 1028,6 10 60 0,0
14.10.2017 09:00:00 14,1 11,8 11,9 21,5 22,8 8 4 15 8 NO 1028,2 10 57 0,0
14.10.2017 08:00:00 12,4 11,0 11,5 21,6 22,8 9 5 16 9 NO 1027,7 10 0 0,0
14.10.2017 07:00:00 12,3 10,9 11,5 21,7 22,8 11 6 14 8 NO 1027,6 10 0 0,0
14.10.2017 06:00:00 12,5 11,4 11,3 21,9 22,8 13 7 16 9 NO 1027,6 10 0 0,0
14.10.2017 05:00:00 12,5 11,4 11,7 22,0 22,8 11 6 15 8 NO 1027,5 10 0 0,0
14.10.2017 04:00:00 12,6 11,5 11,1 22,1 22,8 11 6 13 7 NO 1027,5 9 0 0,0
14.10.2017 03:00:00 12,2 10,9 11,3 22,2 22,9 8 4 12 6 NO 1027,5 8 0 0,0
14.10.2017 02:00:00 13,4 12,0 12,5 22,3 22,8 5 3 11 6 NO 1027,5 9 0 0,0
14.10.2017 01:00:00 13,8 12,4 12,8 22,4 22,8 9 5 13 7 NO 1027,1 9 0 0,0
14.10.2017 00:00:00 13,6 12,2 12,8 22,4 22,9 9 5 12 7 NO 1027,4 8 0 0,0
13.10.2017 23:00:00 14,5 12,7 13,5 22,4 22,8 8 4 10 5 NO 1027,2 7 0 0,0
13.10.2017 22:00:00 15,8 13,8 14,7 22,4 22,8 5 3 10 5 NO 1027,1 9 0 0,0
13.10.2017 21:00:00 16,2 14,0 15,2 22,3 22,9 9 5 11 6 ONO 1026,9 8 0 0,0
13.10.2017 20:00:00 17,9 15,0 16,5 22,1 22,8 5 3 6 3 NO 1026,6 8 0 0,0
13.10.2017 19:00:00 19,3 15,6 17,5 21,9 22,8 4 2 12 7 - 1026,5 10 23 0,0
13.10.2017 18:00:00 21,0 15,8 21,4 21,8 22,9 9 5 14 8 ZZW 1026,6 24 60 0,0
13.10.2017 17:00:00 21,7 15,8 23,7 21,6 22,9 9 5 16 9 ZW 1026,6 10 60 0,0
13.10.2017 16:00:00 22,3 15,9 24,5 21,4 22,9 12 7 21 11 ZW 1026,8 30 60 0,0
13.10.2017 15:00:00 22,5 15,6 29,4 21,3 22,9 11 6 18 10 ZW 1027,2 10 60 0,0
13.10.2017 14:00:00 22,7 15,8 29,9 21,2 22,9 11 6 18 10 ZW 1027,4 10 60 0,0
13.10.2017 13:00:00 21,8 15,9 26,8 21,2 22,9 11 6 21 11 WZW 1027,7 30 41 0,0
13.10.2017 12:00:00 21,5 15,6 28,2 21,2 22,9 9 5 17 9 WZW 1027,8 10 60 0,0
13.10.2017 11:00:00 21,7 14,6 24,8 21,3 22,9 5 3 8 5 - 1027,5 10 60 0,0
13.10.2017 10:00:00 19,5 13,2 16,1 21,4 22,9 5 3 13 7 NNO 1027,2 10 49 0,0
13.10.2017 09:00:00 15,4 12,2 13,7 21,5 22,9 10 5 18 10 NO 1027,1 30 0 0,0
13.10.2017 08:00:00 14,0 11,5 13,4 21,6 22,9 9 5 17 9 NO 1026,7 10 0 0,0
13.10.2017 07:00:00 14,0 11,7 13,3 21,7 22,9 11 6 15 8 NO 1026,5 10 0 0,0
13.10.2017 06:00:00 14,8 12,1 14,0 21,8 22,9 9 5 14 7 NO 1026,5 10 0 0,0
13.10.2017 05:00:00 14,8 12,3 14,0 21,9 22,9 9 5 17 9 NNO 1026,5 10 0 0,0
13.10.2017 04:00:00 15,0 12,7 14,2 22,1 22,9 11 6 18 10 NO 1026,7 10 0 0,0
13.10.2017 03:00:00 15,4 13,1 14,7 22,1 22,9 8 4 14 8 NNO 1026,7 10 0 0,0
13.10.2017 02:00:00 15,3 13,3 14,3 22,2 22,9 11 6 15 8 NO 1026,8 10 0 0,0
13.10.2017 01:00:00 15,7 13,4 14,8 22,2 22,9 9 5 12 7 NO 1026,9 10 0 0,0
13.10.2017 00:00:00 16,4 13,9 15,5 22,2 22,9 9 5 14 7 NNO 1027,2 10 0 0,0
12.10.2017 23:00:00 16,4 13,9 15,5 22,2 22,9 11 6 15 8 NO 1027,3 10 0 0,0
12.10.2017 22:00:00 17,4 15,2 16,4 22,2 22,9 9 5 14 7 NNO 1027,3 10 0 0,0
12.10.2017 21:00:00 18,7 15,8 16,8 22,1 22,9 4 2 7 4 NO 1027,1 10 0 0,0
12.10.2017 20:00:00 19,5 15,8 18,2 21,9 22,9 5 3 13 7 ZO 1026,8 10 0 0,0
12.10.2017 19:00:00 20,5 16,7 19,6 21,7 22,9 9 5 17 9 Z 1026,7 10 24 0,0
12.10.2017 18:00:00 21,8 17,2 22,3 21,5 22,9 13 7 22 12 ZZW 1026,3 10 60 0,0
12.10.2017 17:00:00 22,6 17,1 24,0 21,3 23,0 16 9 25 14 ZZW 1026,0 10 60 0,0
12.10.2017 16:00:00 22,7 15,3 24,2 21,1 22,9 18 10 25 14 ZZW 1025,8 10 60 0,0
12.10.2017 15:00:00 22,7 15,8 27,9 21,0 22,9 18 10 26 14 ZZW 1025,8 10 60 0,0
12.10.2017 14:00:00 22,4 15,5 29,8 21,0 22,9 16 9 44 24 ZW 1026,3 10 60 0,0
12.10.2017 13:00:00 22,0 15,4 29,8 21,0 22,9 15 8 18 10 ZW 1026,7 10 60 0,0
12.10.2017 12:00:00 21,4 15,2 29,4 21,1 22,9 13 7 16 9 ZW 1026,8 10 60 0,0
12.10.2017 11:00:00 20,6 13,1 23,5 21,2 22,9 5 3 10 6 - 1026,8 10 60 0,0
12.10.2017 10:00:00 17,8 11,8 16,9 21,4 23,0 5 3 10 5 - 1026,8 10 60 0,0
12.10.2017 09:00:00 14,0 10,4 11,0 21,5 22,9 11 6 16 9 NO 1026,4 10 58 0,0
12.10.2017 08:00:00 11,5 9,2 11,0 21,7 22,9 11 6 16 8 NO 1025,8 10 0 0,0
12.10.2017 07:00:00 12,1 10,0 10,8 21,8 23,0 11 6 19 10 NO 1025,3 10 0 0,0
12.10.2017 06:00:00 11,6 9,7 10,8 21,9 22,9 11 6 14 8 NO 1025,1 10 0 0,0
12.10.2017 05:00:00 12,3 10,2 11,2 22,1 22,9 11 6 16 9 NO 1025,0 10 0 0,0

tt = temperatuur
td = dauwpunt
tt 5cm = temperatuur 5cm
tt -20cm = temperatuur -20cm
tt -100cm = temperatuur -100cm
ff = windsnelheid
fx = windstoten
dd = windrichting
ppp = luchtdruk
vv = zicht
sd = Zonneschijnduur
rr = neerslag

Weerstations in de omgeving